| time (UTC) | temp F | wind direction | speed MPH | gust MPH | rain 1hr in | rain 24hr in | rain mn in | humidity % | barometer mb |
| 20260904203550 | 86 | 297 | 0.0 | 3.0 | 0.00 | 2.13 | 2.13 | 81 | 1008.5 |
| 20260904203047 | 85 | 244 | 0.0 | 1.0 | 0.00 | 2.13 | 2.13 | 79 | 1008.6 |
| 20260904202542 | 86 | 286 | 0.0 | 3.0 | 0.00 | 2.13 | 2.13 | 79 | 1008.3 |
| 20260904202038 | 86 | 263 | 1.0 | 1.0 | 0.00 | 2.13 | 2.13 | 78 | 1008.3 |
| 20260904201534 | 86 | 231 | 0.0 | 2.0 | 0.00 | 2.13 | 2.13 | 78 | 1008.3 |
| 20260904201028 | 88 | 237 | 0.0 | 2.0 | 0.00 | 2.13 | 2.13 | 73 | 1008.2 |
| 20260904200527 | 88 | 257 | 0.0 | 2.0 | 0.00 | 2.13 | 2.13 | 68 | 1008.5 |
| 20260904200023 | 88 | 130 | 0.0 | 2.0 | 0.00 | 2.13 | 2.13 | 68 | 1008.6 |
| 20260904195521 | 89 | 233 | 0.0 | 3.0 | 0.00 | 2.13 | 2.13 | 68 | 1008.6 |
| 20260904195021 | 89 | 322 | 0.0 | 4.0 | 0.00 | 2.13 | 2.13 | 67 | 1008.7 |
| 20260904194515 | 90 | 229 | 2.0 | 2.0 | 0.00 | 2.13 | 2.13 | 70 | 1008.9 |
| 20260904194010 | 90 | 345 | 1.0 | 2.0 | 0.00 | 2.13 | 2.13 | 67 | 1008.8 |
| 20260904193505 | 89 | 348 | 0.0 | 2.0 | 0.00 | 2.13 | 2.13 | 69 | 1008.5 |
| 20260904193002 | 88 | 322 | 0.0 | 1.0 | 0.00 | 2.13 | 2.13 | 70 | 1008.6 |
| 20260904192501 | 90 | 343 | 0.0 | 2.0 | 0.00 | 2.13 | 2.13 | 66 | 1008.7 |
| 20260904191957 | 90 | 262 | 0.0 | 3.0 | 0.00 | 2.13 | 2.13 | 63 | 1008.8 |
| 20260904191453 | 89 | 304 | 3.0 | 3.0 | 0.00 | 2.13 | 2.13 | 61 | 1008.8 |
| 20260904190950 | 89 | 209 | 0.0 | 2.0 | 0.00 | 2.13 | 2.13 | 63 | 1008.9 |
| 20260904190445 | 89 | 239 | 1.0 | 2.0 | 0.00 | 2.13 | 2.13 | 64 | 1009.1 |
| 20260904185941 | 89 | 238 | 2.0 | 3.0 | 0.00 | 2.13 | 2.13 | 65 | 1009.0 |
| 20260904185437 | 89 | 294 | 3.0 | 3.0 | 0.00 | 2.13 | 2.13 | 65 | 1009.1 |
| 20260904184937 | 89 | 246 | 1.0 | 4.0 | 0.00 | 2.13 | 2.13 | 67 | 1009.2 |
| 20260904184431 | 90 | 310 | 3.0 | 3.0 | 0.00 | 2.13 | 2.13 | 65 | 1009.4 |
| 20260904183927 | 88 | 351 | 1.0 | 3.0 | 0.00 | 2.13 | 2.13 | 64 | 1009.3 |
| 20260904183422 | 89 | 229 | 0.0 | 3.0 | 0.00 | 2.13 | 2.13 | 64 | 1009.2 |
| 20260904182917 | 89 | 66 | 0.0 | 4.0 | 0.00 | 2.13 | 2.13 | 63 | 1009.4 |
| 20260904182413 | 89 | 294 | 0.0 | 3.0 | 0.00 | 2.13 | 2.13 | 64 | 1009.6 |
| 20260904181907 | 89 | 286 | 2.0 | 5.0 | 0.00 | 2.13 | 2.13 | 65 | 1009.7 |
| 20260904181402 | 89 | 352 | 0.0 | 2.0 | 0.00 | 2.13 | 2.13 | 66 | 1009.8 |
| 20260904180857 | 89 | 5 | 1.0 | 3.0 | 0.00 | 2.13 | 2.13 | 67 | 1009.7 |
| 20260904180353 | 89 | 105 | 0.0 | 2.0 | 0.00 | 2.13 | 2.13 | 66 | 1009.6 |
| 20260904175852 | 88 | 202 | 1.0 | 4.0 | 0.00 | 2.13 | 2.13 | 66 | 1009.7 |
| 20260904175350 | 88 | 10 | 0.0 | 3.0 | 0.00 | 2.13 | 2.13 | 66 | 1010.0 |
| 20260904174844 | 88 | 353 | 2.0 | 3.0 | 0.00 | 2.13 | 2.13 | 67 | 1009.8 |
| 20260904174341 | 88 | 108 | 0.0 | 4.0 | 0.00 | 2.13 | 2.13 | 70 | 1009.9 |
| 20260904173837 | 88 | 253 | 0.0 | 3.0 | 0.00 | 2.13 | 2.13 | 67 | 1010.0 |
| 20260904173332 | 86 | 283 | 2.0 | 5.0 | 0.00 | 2.13 | 2.13 | 67 | 1010.0 |
| 20260904172828 | 88 | 249 | 1.0 | 2.0 | 0.00 | 2.13 | 2.13 | 69 | 1010.1 |
| 20260904172327 | 86 | 299 | 1.0 | 4.0 | 0.00 | 2.13 | 2.13 | 67 | 1009.9 |
| 20260904171822 | 86 | 323 | 2.0 | 4.0 | 0.00 | 2.13 | 2.13 | 67 | 1009.9 |
| 20260904171317 | 85 | 262 | 3.0 | 4.0 | 0.00 | 2.13 | 2.13 | 67 | 1009.9 |
| 20260904170814 | 86 | 296 | 3.0 | 3.0 | 0.00 | 2.13 | 2.13 | 70 | 1009.9 |
| 20260904170309 | 86 | 294 | 3.0 | 3.0 | 0.00 | 2.13 | 2.13 | 70 | 1010.1 |
| 20260904165808 | 86 | 328 | 2.0 | 3.0 | 0.00 | 2.13 | 2.13 | 70 | 1009.9 |
| 20260904165305 | 86 | 349 | 0.0 | 3.0 | 0.00 | 2.13 | 2.13 | 73 | 1010.0 |
| 20260904164756 | 84 | 241 | 2.0 | 5.0 | 0.00 | 2.13 | 2.13 | 70 | 1010.0 |
| 20260904164252 | 86 | 0 | 3.0 | 4.0 | 0.00 | 2.13 | 2.13 | 70 | 1009.8 |
| 20260904163748 | 86 | 301 | 3.0 | 3.0 | 0.00 | 2.13 | 2.13 | 73 | 1010.2 |
| 20260904163243 | 86 | 326 | 0.0 | 4.0 | 0.00 | 2.13 | 2.13 | 70 | 1010.1 |
| 20260904162742 | 86 | 269 | 0.0 | 4.0 | 0.00 | 2.13 | 2.13 | 72 | 1010.1 |
| 20260904162237 | 86 | 272 | 1.0 | 4.0 | 0.00 | 2.13 | 2.13 | 72 | 1010.1 |
| 20260904161733 | 86 | 302 | 2.0 | 4.0 | 0.00 | 2.13 | 2.13 | 73 | 1010.3 |
| 20260904161233 | 85 | 2 | 2.0 | 4.0 | 0.00 | 2.13 | 2.13 | 73 | 1010.3 |
| 20260904160728 | 84 | 309 | 0.0 | 5.0 | 0.00 | 2.13 | 2.13 | 73 | 1010.2 |
| 20260904160224 | 85 | 349 | 3.0 | 4.0 | 0.00 | 2.13 | 2.13 | 73 | 1010.6 |
| 20260904155724 | 85 | 0 | 1.0 | 4.0 | 0.00 | 2.13 | 2.13 | 72 | 1010.5 |
| 20260904155223 | 85 | 251 | 3.0 | 4.0 | 0.00 | 2.13 | 2.13 | 73 | 1010.4 |
| 20260904154722 | 85 | 98 | 1.0 | 4.0 | 0.00 | 2.13 | 2.13 | 74 | 1010.5 |
| 20260904154216 | 85 | 306 | 2.0 | 3.0 | 0.00 | 2.13 | 2.13 | 75 | 1010.7 |
| 20260904153712 | 84 | 311 | 5.0 | 6.0 | 0.00 | 2.13 | 2.13 | 73 | 1010.4 |
| 20260904153207 | 85 | 308 | 3.0 | 4.0 | 0.00 | 2.13 | 2.13 | 74 | 1010.6 |
| 20260904152704 | 84 | 278 | 3.0 | 4.0 | 0.00 | 2.13 | 2.13 | 75 | 1010.6 |
| 20260904152159 | 84 | 294 | 2.0 | 4.0 | 0.00 | 2.13 | 2.13 | 77 | 1010.7 |
| 20260904151654 | 83 | 331 | 2.0 | 3.0 | 0.00 | 2.13 | 2.13 | 76 | 1010.6 |
| 20260904151152 | 83 | 342 | 0.0 | 3.0 | 0.00 | 2.13 | 2.13 | 76 | 1010.3 |
| 20260904150648 | 83 | 228 | 4.0 | 5.0 | 0.00 | 2.13 | 2.13 | 75 | 1010.5 |
| 20260904150144 | 83 | 356 | 2.0 | 5.0 | 0.00 | 2.13 | 2.13 | 75 | 1010.6 |
| 20260904145642 | 83 | 294 | 3.0 | 5.0 | 0.00 | 2.13 | 2.13 | 78 | 1010.5 |
| 20260904145137 | 82 | 277 | 1.0 | 3.0 | 0.00 | 2.13 | 2.13 | 79 | 1010.5 |
| 20260904144632 | 82 | 279 | 1.0 | 4.0 | 0.00 | 2.13 | 2.13 | 80 | 1010.6 |
| 20260904144128 | 82 | 265 | 2.0 | 4.0 | 0.00 | 2.13 | 2.13 | 81 | 1010.8 |
| 20260904143624 | 82 | 279 | 2.0 | 3.0 | 0.00 | 2.13 | 2.13 | 81 | 1010.9 |
| 20260904143120 | 82 | 303 | 4.0 | 5.0 | 0.00 | 2.13 | 2.13 | 79 | 1011.0 |
| 20260904142617 | 81 | 338 | 1.0 | 4.0 | 0.00 | 2.13 | 2.13 | 81 | 1011.0 |
| 20260904142112 | 81 | 245 | 2.0 | 5.0 | 0.00 | 2.13 | 2.13 | 82 | 1010.8 |
| 20260904141607 | 81 | 317 | 2.0 | 3.0 | 0.00 | 2.13 | 2.13 | 81 | 1010.6 |
| 20260904141103 | 81 | 285 | 2.0 | 4.0 | 0.00 | 2.13 | 2.13 | 83 | 1010.6 |
| 20260904140558 | 78 | 282 | 3.0 | 3.0 | 0.00 | 2.13 | 2.13 | 84 | 1010.7 |
| 20260904140052 | 78 | 300 | 2.0 | 3.0 | 0.00 | 2.13 | 2.13 | 88 | 1010.7 |
| 20260904135551 | 76 | 7 | 1.0 | 2.0 | 0.00 | 2.13 | 2.13 | 92 | 1010.6 |
| 20260904135048 | 75 | 337 | 1.0 | 3.0 | 0.00 | 2.13 | 2.13 | 95 | 1010.5 |
| 20260904134542 | 75 | 305 | 1.0 | 2.0 | 0.00 | 2.13 | 2.13 | 98 | 1010.4 |
| 20260904134036 | 74 | 321 | 2.0 | 3.0 | 0.00 | 2.13 | 2.13 | 98 | 1010.4 |
| 20260904133531 | 75 | 314 | 0.0 | 3.0 | 0.00 | 2.13 | 2.13 | 99 | 1010.5 |
| 20260904133027 | 75 | 255 | 0.0 | 3.0 | 0.00 | 2.13 | 2.13 | 99 | 1010.5 |
| 20260904132522 | 75 | 239 | 0.0 | 2.0 | 0.00 | 2.13 | 2.13 | 99 | 1010.8 |
| 20260904132021 | 75 | 297 | 1.0 | 2.0 | 0.00 | 2.13 | 2.13 | 99 | 1010.7 |
| 20260904131516 | 75 | 250 | 1.0 | 2.0 | 0.00 | 2.13 | 2.13 | 99 | 1010.6 |
| 20260904131012 | 75 | 280 | 1.0 | 2.0 | 0.00 | 2.13 | 2.13 | 99 | 1010.7 |
| 20260904130511 | 75 | 282 | 2.0 | 3.0 | 0.00 | 2.13 | 2.13 | 99 | 1010.7 |
| 20260904130006 | 75 | 102 | 2.0 | 3.0 | 0.00 | 2.13 | 2.13 | 99 | 1010.8 |
| 20260904125502 | 75 | 74 | 2.0 | 3.0 | 0.00 | 2.13 | 2.13 | 99 | 1010.7 |
| 20260904124956 | 75 | 107 | 2.0 | 3.0 | 0.00 | 2.13 | 2.13 | 99 | 1010.6 |
| 20260904124452 | 75 | 96 | 2.0 | 4.0 | 0.00 | 2.13 | 2.13 | 99 | 1010.9 |
| 20260904123948 | 74 | 93 | 2.0 | 4.0 | 0.00 | 2.13 | 2.13 | 99 | 1010.9 |
| 20260904123442 | 74 | 97 | 3.0 | 4.0 | 0.00 | 2.13 | 2.13 | 99 | 1011.0 |
| 20260904122938 | 74 | 73 | 3.0 | 4.0 | 0.00 | 2.13 | 2.13 | 99 | 1010.8 |
| 20260904122437 | 74 | 120 | 3.0 | 4.0 | 0.00 | 2.13 | 2.13 | 99 | 1010.9 |
| 20260904121931 | 74 | 93 | 3.0 | 3.0 | 0.00 | 2.13 | 2.13 | 99 | 1011.0 |
| 20260904121428 | 74 | 68 | 3.0 | 3.0 | 0.00 | 2.13 | 2.13 | 99 | 1011.3 |
| 20260904120919 | 74 | 60 | 3.0 | 4.0 | 0.00 | 2.13 | 2.13 | 99 | 1011.2 |
| 20260904120414 | 74 | 80 | 3.0 | 4.0 | 0.00 | 2.13 | 2.13 | 99 | 1011.0 |
| 20260904115910 | 74 | 104 | 2.0 | 3.0 | 0.00 | 2.13 | 2.13 | 99 | 1011.1 |
| 20260904115405 | 74 | 104 | 3.0 | 3.0 | 0.00 | 2.13 | 2.13 | 99 | 1011.1 |
| 20260904114859 | 74 | 65 | 3.0 | 3.0 | 0.00 | 2.13 | 2.13 | 99 | 1011.0 |
| 20260904114354 | 74 | 80 | 3.0 | 4.0 | 0.00 | 2.13 | 2.13 | 99 | 1011.0 |
| 20260904113849 | 73 | 117 | 3.0 | 3.0 | 0.00 | 2.13 | 2.13 | 99 | 1011.1 |
| 20260904113348 | 74 | 82 | 3.0 | 3.0 | 0.00 | 2.13 | 2.13 | 99 | 1011.0 |
| 20260904112843 | 73 | 96 | 2.0 | 3.0 | 0.00 | 2.13 | 2.13 | 99 | 1011.2 |
| 20260904112338 | 73 | 79 | 3.0 | 4.0 | 0.00 | 2.13 | 2.13 | 99 | 1011.2 |
| 20260904111834 | 73 | 66 | 3.0 | 5.0 | 0.00 | 2.13 | 2.13 | 99 | 1011.2 |
| 20260904111330 | 73 | 89 | 3.0 | 5.0 | 0.00 | 2.13 | 2.13 | 99 | 1010.9 |
| 20260904110825 | 73 | 60 | 5.0 | 5.0 | 0.00 | 2.13 | 2.13 | 99 | 1010.2 |
| 20260904110324 | 73 | 91 | 2.0 | 3.0 | 0.02 | 2.13 | 2.13 | 99 | 1010.1 |
| 20260904105824 | 72 | 75 | 3.0 | 3.0 | 0.00 | 2.13 | 2.13 | 99 | 1009.9 |
| 20260904105320 | 72 | 77 | 3.0 | 3.0 | 0.00 | 2.13 | 2.13 | 99 | 1009.7 |
| 20260904104814 | 72 | 113 | 3.0 | 4.0 | 0.00 | 2.13 | 2.13 | 99 | 1009.7 |
| 20260904104310 | 72 | 106 | 3.0 | 3.0 | 0.00 | 2.13 | 2.13 | 99 | 1009.8 |
| 20260904103807 | 71 | 103 | 3.0 | 3.0 | 0.00 | 2.13 | 2.13 | 99 | 1009.8 |
| 20260904103306 | 71 | 109 | 2.0 | 3.0 | 0.00 | 2.13 | 2.13 | 99 | 1009.7 |
| 20260904102802 | 71 | 101 | 2.0 | 3.0 | 0.00 | 2.13 | 2.13 | 99 | 1009.9 |
| 20260904102258 | 71 | 78 | 2.0 | 3.0 | 0.00 | 2.13 | 2.13 | 99 | 1009.9 |
| 20260904101753 | 71 | 100 | 2.0 | 3.0 | 0.00 | 2.13 | 2.13 | 99 | 1009.5 |
| 20260904101249 | 71 | 85 | 2.0 | 3.0 | 0.00 | 2.13 | 2.13 | 99 | 1009.5 |
| 20260904100744 | 71 | 102 | 2.0 | 3.0 | 0.00 | 2.13 | 2.13 | 99 | 1009.5 |
| 20260904100241 | 71 | 99 | 2.0 | 3.0 | 0.00 | 2.13 | 2.13 | 99 | 1009.7 |
| 20260904095741 | 71 | 79 | 3.0 | 3.0 | 0.00 | 2.13 | 2.13 | 99 | 1009.5 |
| 20260904095241 | 71 | 98 | 2.0 | 3.0 | 0.00 | 2.13 | 2.13 | 99 | 1009.7 |
| 20260904094736 | 71 | 94 | 2.0 | 3.0 | 0.00 | 2.13 | 2.13 | 99 | 1009.7 |
| 20260904094231 | 72 | 99 | 2.0 | 3.0 | 0.00 | 2.13 | 2.13 | 99 | 1009.7 |
| 20260904093727 | 72 | 101 | 2.0 | 3.0 | 0.00 | 2.13 | 2.13 | 99 | 1009.6 |
| 20260904093227 | 72 | 98 | 2.0 | 3.0 | 0.00 | 2.13 | 2.13 | 99 | 1009.8 |
| 20260904092723 | 72 | 105 | 2.0 | 3.0 | 0.00 | 2.13 | 2.13 | 99 | 1009.8 |
| 20260904092219 | 72 | 100 | 2.0 | 3.0 | 0.00 | 2.13 | 2.13 | 99 | 1009.9 |
| 20260904091715 | 72 | 104 | 3.0 | 3.0 | 0.00 | 2.13 | 2.13 | 99 | 1009.7 |
| 20260904091210 | 72 | 86 | 2.0 | 3.0 | 0.00 | 2.13 | 2.13 | 99 | 1009.9 |
| 20260904090705 | 72 | 88 | 3.0 | 4.0 | 0.00 | 2.13 | 2.13 | 99 | 1009.8 |
| 20260904090201 | 72 | 97 | 3.0 | 3.0 | 0.00 | 2.13 | 2.13 | 99 | 1010.0 |
| 20260904085656 | 72 | 93 | 3.0 | 4.0 | 0.00 | 2.13 | 2.13 | 99 | 1009.8 |
| 20260904085155 | 72 | 87 | 3.0 | 3.0 | 0.00 | 2.13 | 2.13 | 99 | 1009.8 |
| 20260904084650 | 72 | 95 | 2.0 | 3.0 | 0.00 | 2.13 | 2.13 | 99 | 1009.9 |
| 20260904084147 | 72 | 103 | 3.0 | 3.0 | 0.00 | 2.13 | 2.13 | 99 | 1009.8 |
| 20260904083644 | 72 | 83 | 3.0 | 3.0 | 0.00 | 2.13 | 2.13 | 99 | 1009.8 |
| 20260904083139 | 72 | 95 | 2.0 | 3.0 | 0.00 | 2.13 | 2.13 | 99 | 1009.7 |
| 20260904082633 | 72 | 93 | 2.0 | 3.0 | 0.00 | 2.13 | 2.13 | 99 | 1009.7 |
| 20260904082129 | 72 | 81 | 3.0 | 3.0 | 0.00 | 2.13 | 2.13 | 99 | 1009.5 |
| 20260904081619 | 72 | 79 | 2.0 | 3.0 | 0.00 | 2.13 | 2.13 | 99 | 1009.8 |
| 20260904081114 | 72 | 73 | 2.0 | 3.0 | 0.00 | 2.13 | 2.13 | 99 | 1009.5 |
| 20260904080610 | 72 | 85 | 3.0 | 3.0 | 0.00 | 2.13 | 2.13 | 99 | 1009.6 |
| 20260904080106 | 72 | 101 | 2.0 | 3.0 | 0.00 | 2.13 | 2.13 | 99 | 1009.5 |
| 20260904075601 | 72 | 93 | 3.0 | 3.0 | 0.00 | 2.13 | 2.13 | 99 | 1009.6 |
| 20260904075056 | 72 | 92 | 2.0 | 4.0 | 0.00 | 2.13 | 2.13 | 99 | 1009.9 |
| 20260904074555 | 72 | 100 | 3.0 | 3.0 | 0.00 | 2.13 | 2.13 | 99 | 1009.8 |
| 20260904074050 | 72 | 96 | 2.0 | 3.0 | 0.02 | 2.13 | 2.13 | 99 | 1009.7 |
| 20260904073545 | 73 | 86 | 2.0 | 3.0 | 0.02 | 2.13 | 2.13 | 99 | 1009.9 |
| 20260904073041 | 73 | 96 | 3.0 | 3.0 | 0.00 | 2.12 | 2.12 | 99 | 1009.7 |
| 20260904072537 | 72 | 96 | 2.0 | 2.0 | 0.00 | 2.12 | 2.12 | 99 | 1009.6 |
| 20260904072032 | 72 | 78 | 3.0 | 4.0 | 0.00 | 2.12 | 2.12 | 99 | 1009.6 |
| 20260904071527 | 72 | 91 | 3.0 | 4.0 | 0.00 | 2.12 | 2.12 | 99 | 1009.6 |
| 20260904071022 | 72 | 98 | 2.0 | 5.0 | 0.00 | 2.12 | 2.12 | 99 | 1009.5 |
| 20260904070520 | 72 | 135 | 3.0 | 4.0 | 0.00 | 2.12 | 2.12 | 99 | 1009.4 |
| 20260904070015 | 72 | 94 | 3.0 | 4.0 | 0.00 | 2.12 | 2.12 | 99 | 1009.4 |
| 20260904065510 | 72 | 112 | 3.0 | 3.0 | 0.02 | 2.12 | 2.12 | 99 | 1009.5 |
| 20260904065007 | 72 | 94 | 3.0 | 4.0 | 0.00 | 2.12 | 2.12 | 99 | 1009.7 |
| 20260904064503 | 72 | 114 | 2.0 | 3.0 | 0.00 | 2.12 | 2.12 | 99 | 1009.7 |
| 20260904063957 | 72 | 93 | 3.0 | 4.0 | 0.00 | 2.12 | 2.12 | 99 | 1009.5 |
| 20260904063454 | 72 | 75 | 2.0 | 4.0 | 0.00 | 2.12 | 2.12 | 99 | 1009.4 |
| 20260904062949 | 72 | 78 | 3.0 | 4.0 | 0.00 | 2.12 | 2.12 | 99 | 1008.9 |
| 20260904062445 | 72 | 109 | 2.0 | 3.0 | 0.02 | 2.12 | 2.12 | 99 | 1009.4 |
| 20260904061940 | 72 | 92 | 2.0 | 3.0 | 0.02 | 2.11 | 2.11 | 99 | 1009.7 |
| 20260904061437 | 72 | 86 | 3.0 | 4.0 | 0.07 | 2.11 | 2.11 | 99 | 1010.1 |
| 20260904060932 | 72 | 85 | 3.0 | 4.0 | 0.09 | 2.11 | 2.11 | 99 | 1010.4 |
| 20260904060428 | 72 | 95 | 3.0 | 5.0 | 0.19 | 2.10 | 2.10 | 99 | 1010.8 |
| 20260904055924 | 72 | 105 | 3.0 | 4.0 | 0.26 | 2.09 | 2.09 | 99 | 1011.2 |
| 20260904055419 | 72 | 124 | 4.0 | 5.0 | 0.26 | 2.07 | 2.07 | 99 | 1011.6 |
| 20260904054915 | 72 | 133 | 3.0 | 4.0 | 0.40 | 2.05 | 2.05 | 99 | 1011.8 |
| 20260904054410 | 72 | 102 | 3.0 | 4.0 | 0.85 | 2.02 | 2.02 | 99 | 1012.4 |
| 20260904053906 | 72 | 160 | 2.0 | 4.0 | 1.51 | 1.97 | 1.97 | 99 | 1012.5 |
| 20260904053405 | 72 | 97 | 4.0 | 5.0 | 1.89 | 1.85 | 1.85 | 99 | 1013.5 |
| 20260904052901 | 72 | 133 | 1.0 | 4.0 | 2.10 | 1.70 | 1.70 | 99 | 1014.1 |
| 20260904052357 | 72 | 322 | 0.0 | 3.0 | 2.55 | 1.51 | 1.51 | 99 | 1013.0 |
| 20260904051853 | 72 | 92 | 3.0 | 5.0 | 3.80 | 1.35 | 1.35 | 99 | 1012.1 |
| 20260904051349 | 72 | 19 | 3.0 | 15.0 | 4.09 | 1.09 | 1.09 | 98 | 1012.3 |
| 20260904050848 | 73 | 325 | 5.0 | 10.0 | 2.72 | 0.66 | 0.66 | 98 | 1012.3 |
| 20260904050345 | 73 | 229 | 4.0 | 9.0 | 1.04 | 0.37 | 0.37 | 98 | 1012.6 |
| 20260904045845 | 72 | 353 | 3.0 | 5.0 | 0.02 | 0.20 | 0.20 | 98 | 1012.0 |
| 20260904045340 | 72 | 333 | 2.0 | 5.0 | 0.09 | 0.20 | 0.20 | 98 | 1010.9 |
| 20260904044834 | 72 | 335 | 1.0 | 2.0 | 0.07 | 0.20 | 0.20 | 98 | 1010.0 |
| 20260904044331 | 72 | 111 | 2.0 | 3.0 | 0.00 | 0.18 | 0.18 | 98 | 1010.5 |
| 20260904043827 | 72 | 229 | 0.0 | 2.0 | 0.02 | 0.18 | 0.18 | 98 | 1010.8 |
| 20260904043324 | 73 | 209 | 1.0 | 2.0 | 0.00 | 0.18 | 0.18 | 97 | 1010.6 |
| 20260904042824 | 73 | 119 | 1.0 | 3.0 | 0.05 | 0.18 | 0.18 | 97 | 1010.8 |
| 20260904042320 | 73 | 48 | 0.0 | 2.0 | 0.31 | 0.18 | 0.18 | 97 | 1010.2 |
| 20260904041820 | 73 | 168 | 1.0 | 3.0 | 0.73 | 0.17 | 0.17 | 97 | 1010.1 |
| 20260904041316 | 73 | 171 | 3.0 | 5.0 | 0.54 | 0.11 | 0.11 | 96 | 1011.0 |
| 20260904040811 | 74 | 265 | 2.0 | 3.0 | 0.26 | 0.04 | 0.04 | 95 | 1011.7 |
| 20260904040307 | 75 | 224 | 5.0 | 6.0 | 0.17 | 0.02 | 0.02 | 94 | 1011.4 |
| 20260904035803 | 77 | 246 | 2.0 | 4.0 | 0.00 | 0.00 | 0.00 | 92 | 1010.8 |
| 20260904035258 | 78 | 232 | 3.0 | 5.0 | 0.00 | 0.00 | 0.00 | 93 | 1010.9 |
| 20260904034757 | 79 | 252 | 1.0 | 5.0 | 0.00 | 0.00 | 0.00 | 93 | 1010.6 |
| 20260904034253 | 79 | 225 | 3.0 | 4.0 | 0.00 | 0.00 | 0.00 | 97 | 1010.4 |
| 20260904033749 | 78 | 262 | 1.0 | 4.0 | 0.00 | 0.00 | 0.00 | 97 | 1009.9 |
| 20260904033245 | 78 | 277 | 2.0 | 5.0 | 0.00 | 0.00 | 0.00 | 97 | 1009.5 |
| 20260904032741 | 78 | 291 | 1.0 | 2.0 | 0.00 | 0.00 | 0.00 | 97 | 1009.5 |
| 20260904032240 | 78 | 251 | 1.0 | 2.0 | 0.00 | 0.00 | 0.00 | 97 | 1009.8 |
| 20260904031729 | 78 | 216 | 0.0 | 3.0 | 0.00 | 0.00 | 0.00 | 97 | 1009.6 |
| 20260904031224 | 78 | 308 | 0.0 | 3.0 | 0.00 | 0.00 | 0.00 | 97 | 1009.7 |
| 20260904030720 | 78 | 272 | 1.0 | 2.0 | 0.00 | 0.00 | 0.00 | 97 | 1009.9 |
| 20260904030215 | 78 | 252 | 1.0 | 3.0 | 0.00 | 0.00 | 0.00 | 97 | 1009.8 |
| 20260904025712 | 78 | 278 | 2.0 | 2.0 | 0.00 | 0.00 | 0.00 | 97 | 1010.0 |
| 20260904025206 | 78 | 266 | 3.0 | 3.0 | 0.00 | 0.00 | 0.00 | 97 | 1010.0 |
| 20260904024702 | 78 | 244 | 1.0 | 2.0 | 0.00 | 0.00 | 0.00 | 97 | 1010.0 |
| 20260904024157 | 78 | 261 | 1.0 | 2.0 | 0.00 | 0.00 | 0.00 | 97 | 1010.2 |
| 20260904023654 | 78 | 290 | 0.0 | 2.0 | 0.00 | 0.00 | 0.00 | 96 | 1010.3 |
| 20260904023150 | 78 | 222 | 0.0 | 2.0 | 0.00 | 0.00 | 0.00 | 96 | 1010.3 |
| 20260904022648 | 79 | 255 | 1.0 | 2.0 | 0.00 | 0.00 | 0.00 | 96 | 1010.4 |
| 20260904022146 | 79 | 279 | 1.0 | 3.0 | 0.00 | 0.00 | 0.00 | 96 | 1010.3 |
| 20260904021641 | 79 | 267 | 2.0 | 2.0 | 0.00 | 0.00 | 0.00 | 96 | 1010.3 |
| 20260904021136 | 79 | 281 | 0.0 | 3.0 | 0.00 | 0.00 | 0.00 | 96 | 1010.1 |
| 20260904020633 | 78 | 273 | 3.0 | 3.0 | 0.00 | 0.00 | 0.00 | 97 | 1010.2 |
| 20260904020126 | 78 | 288 | 1.0 | 2.0 | 0.00 | 0.00 | 0.00 | 97 | 1010.2 |
| 20260904015621 | 78 | 242 | 1.0 | 3.0 | 0.00 | 0.00 | 0.00 | 97 | 1010.2 |
| 20260904015120 | 78 | 257 | 1.0 | 3.0 | 0.00 | 0.00 | 0.00 | 97 | 1010.2 |
| 20260904014619 | 78 | 248 | 1.0 | 3.0 | 0.00 | 0.00 | 0.00 | 97 | 1010.3 |
| 20260904014114 | 78 | 283 | 2.0 | 3.0 | 0.00 | 0.00 | 0.00 | 97 | 1010.5 |
| 20260904013611 | 79 | 260 | 1.0 | 2.0 | 0.00 | 0.00 | 0.00 | 97 | 1010.4 |
| 20260904013107 | 79 | 269 | 0.0 | 2.0 | 0.00 | 0.00 | 0.00 | 96 | 1010.5 |
| 20260904012602 | 79 | 234 | 0.0 | 2.0 | 0.00 | 0.00 | 0.00 | 96 | 1010.5 |
| 20260904012101 | 79 | 311 | 0.0 | 2.0 | 0.00 | 0.00 | 0.00 | 96 | 1010.7 |
| 20260904011600 | 79 | 241 | 0.0 | 2.0 | 0.00 | 0.00 | 0.00 | 96 | 1010.8 |
| 20260904011056 | 79 | 286 | 1.0 | 3.0 | 0.00 | 0.00 | 0.00 | 96 | 1011.0 |
| 20260904010552 | 79 | 269 | 0.0 | 2.0 | 0.00 | 0.00 | 0.00 | 96 | 1010.9 |
| 20260904010049 | 79 | 257 | 1.0 | 2.0 | 0.00 | 0.00 | 0.00 | 96 | 1011.3 |
| 20260904005548 | 80 | 309 | 0.0 | 2.0 | 0.00 | 0.00 | 0.00 | 95 | 1011.1 |
| 20260904005043 | 80 | 271 | 2.0 | 3.0 | 0.00 | 0.00 | 0.00 | 96 | 1011.2 |
| 20260904004539 | 80 | 243 | 0.0 | 2.0 | 0.00 | 0.00 | 0.00 | 95 | 1011.3 |
| 20260904004034 | 80 | 222 | 1.0 | 2.0 | 0.00 | 0.00 | 0.00 | 95 | 1011.2 |
| 20260904003530 | 80 | 290 | 1.0 | 2.0 | 0.00 | 0.00 | 0.00 | 95 | 1011.1 |
| 20260904003026 | 80 | 282 | 1.0 | 3.0 | 0.00 | 0.00 | 0.00 | 95 | 1011.1 |
| 20260904002521 | 80 | 257 | 1.0 | 2.0 | 0.00 | 0.00 | 0.00 | 95 | 1011.1 |
| 20260904002021 | 80 | 306 | 0.0 | 2.0 | 0.00 | 0.00 | 0.00 | 95 | 1010.8 |
| 20260904001517 | 80 | 232 | 1.0 | 2.0 | 0.00 | 0.00 | 0.00 | 94 | 1010.6 |
| 20260904001016 | 81 | 240 | 1.0 | 3.0 | 0.00 | 0.00 | 0.00 | 94 | 1010.6 |
| 20260904000515 | 81 | 309 | 0.0 | 2.0 | 0.00 | 0.00 | 0.00 | 94 | 1010.5 |
| 20260904000012 | 81 | 322 | 0.0 | 1.0 | 0.00 | 0.00 | 0.00 | 94 | 1010.3 |
| 20260903235512 | 81 | 262 | 1.0 | 2.0 | 0.00 | 0.00 | 0.00 | 93 | 1010.5 |
| 20260903235007 | 81 | 286 | 2.0 | 3.0 | 0.00 | 0.00 | 0.00 | 93 | 1010.4 |
| 20260903234502 | 81 | 300 | 2.0 | 2.0 | 0.00 | 0.00 | 0.00 | 94 | 1010.3 |
| 20260903233958 | 82 | 280 | 1.0 | 2.0 | 0.00 | 0.00 | 0.00 | 93 | 1010.4 |
| 20260903233454 | 82 | 272 | 1.0 | 2.0 | 0.00 | 0.00 | 0.00 | 93 | 1010.2 |
| 20260903232949 | 82 | 255 | 0.0 | 2.0 | 0.00 | 0.00 | 0.00 | 93 | 1010.0 |
| 20260903232444 | 82 | 265 | 0.0 | 2.0 | 0.00 | 0.00 | 0.00 | 92 | 1010.2 |
| 20260903231938 | 83 | 251 | 1.0 | 1.0 | 0.00 | 0.00 | 0.00 | 92 | 1010.3 |
| 20260903231434 | 83 | 191 | 0.0 | 1.0 | 0.00 | 0.00 | 0.00 | 91 | 1010.2 |
| 20260903230927 | 83 | 184 | 0.0 | 3.0 | 0.00 | 0.00 | 0.00 | 91 | 1010.2 |
| 20260903230423 | 83 | 276 | 0.0 | 0.0 | 0.00 | 0.00 | 0.00 | 90 | 1010.0 |
| 20260903225920 | 84 | 284 | 0.0 | 0.0 | 0.00 | 0.00 | 0.00 | 89 | 1010.1 |
| 20260903225415 | 84 | 205 | 0.0 | 1.0 | 0.00 | 0.00 | 0.00 | 89 | 1010.2 |
| 20260903224911 | 84 | 212 | 0.0 | 1.0 | 0.00 | 0.00 | 0.00 | 88 | 1010.2 |
| 20260903224407 | 84 | 269 | 0.0 | 0.0 | 0.00 | 0.00 | 0.00 | 87 | 1010.0 |
| 20260903223903 | 84 | 269 | 0.0 | 0.0 | 0.00 | 0.00 | 0.00 | 87 | 1009.7 |
| 20260903223401 | 85 | 309 | 0.0 | 1.0 | 0.00 | 0.00 | 0.00 | 87 | 1010.0 |
| 20260903222856 | 85 | 335 | 0.0 | 0.0 | 0.00 | 0.00 | 0.00 | 86 | 1010.0 |
| 20260903222356 | 85 | 333 | 0.0 | 1.0 | 0.00 | 0.00 | 0.00 | 86 | 1009.7 |
| 20260903221851 | 86 | 238 | 0.0 | 1.0 | 0.00 | 0.00 | 0.00 | 86 | 1010.0 |
| 20260903221349 | 86 | 240 | 0.0 | 1.0 | 0.00 | 0.00 | 0.00 | 84 | 1010.0 |
| 20260903220848 | 86 | 357 | 0.0 | 0.0 | 0.00 | 0.00 | 0.00 | 84 | 1010.1 |
| 20260903220342 | 86 | 260 | 0.0 | 0.0 | 0.00 | 0.00 | 0.00 | 84 | 1010.2 |
| 20260903215840 | 87 | 173 | 0.0 | 0.0 | 0.00 | 0.00 | 0.00 | 83 | 1010.3 |
| 20260903215337 | 87 | 212 | 0.0 | 3.0 | 0.00 | 0.00 | 0.00 | 82 | 1010.1 |
| 20260903214835 | 87 | 294 | 1.0 | 2.0 | 0.00 | 0.00 | 0.00 | 82 | 1010.2 |
| 20260903214332 | 88 | 312 | 0.0 | 2.0 | 0.00 | 0.00 | 0.00 | 79 | 1010.2 |
| 20260903213831 | 89 | 355 | 1.0 | 3.0 | 0.00 | 0.00 | 0.00 | 74 | 1010.2 |
| 20260903213327 | 89 | 261 | 2.0 | 2.0 | 0.00 | 0.00 | 0.00 | 76 | 1010.1 |
| 20260903212823 | 89 | 147 | 0.0 | 2.0 | 0.00 | 0.00 | 0.00 | 73 | 1010.2 |
| 20260903212319 | 89 | 358 | 0.0 | 2.0 | 0.00 | 0.00 | 0.00 | 76 | 1010.1 |
| 20260903211818 | 89 | 313 | 2.0 | 3.0 | 0.00 | 0.00 | 0.00 | 75 | 1010.2 |
| 20260903211315 | 89 | 214 | 0.0 | 3.0 | 0.00 | 0.00 | 0.00 | 73 | 1010.2 |
| 20260903210811 | 89 | 323 | 0.0 | 2.0 | 0.00 | 0.00 | 0.00 | 75 | 1010.1 |
| 20260903210311 | 90 | 329 | 0.0 | 2.0 | 0.00 | 0.00 | 0.00 | 73 | 1010.3 |
| 20260903205810 | 89 | 256 | 1.0 | 3.0 | 0.00 | 0.00 | 0.00 | 73 | 1010.3 |
| 20260903205310 | 90 | 241 | 1.0 | 3.0 | 0.00 | 0.00 | 0.00 | 71 | 1010.2 |
| 20260903204805 | 91 | 290 | 1.0 | 2.0 | 0.00 | 0.00 | 0.00 | 68 | 1010.5 |
| 20260903204301 | 91 | 273 | 1.0 | 2.0 | 0.00 | 0.00 | 0.00 | 67 | 1010.5 |